M I D A S
Marine Information and Data Acquisition System
Tripno 885 of the Zeeleeuw from 2005-04-22 07:21:10 to 2005-04-22 12:43:49
Back to CruiseResearch ActivitiesStationsMapUnderway DataData graphs

EquipmentUnitsComments
TimeDGPSUTC
LatitudeDGPSDM.mWGS84
LongitudeDGPSDM.mWGS84
SpeedMeteo Stationm/sRelative wind speed
DirectionMeteo StationdegRelative wind direction
TemperatureMeteo Stationdeg CelciusAir temperature
PressureMeteo StationPaAtmospheric pressure
HumidityMeteo Station%Relative humidity
Missing or incorrect values are displayed as -999
Metereological data collected by the RV Zeeleeuw from 2005-04-22 07:20:42 to 2005-04-22 12:55:07
                                                                                    Next 1000 lines
Time Latitude Longitude Speed Direction Temperature Pressure Humidity
2005-04-22 07:20:51 51°13.595 2°56.101 3.1 9 9.1 101650 60
2005-04-22 07:20:57 51°13.595 2°56.099 2.3 2 9.1 101650 60
2005-04-22 07:21:01 51°13.596 2°56.096 2.1 15 9.1 101650 60
2005-04-22 07:21:07 51°13.597 2°56.092 1.5 17 9.1 101650 60
2005-04-22 07:21:11 51°13.598 2°56.088 1.5 20 9.1 101650 60
2005-04-22 07:21:18 51°13.6 2°56.081 2 27 9.1 101650 60
2005-04-22 07:21:22 51°13.602 2°56.076 1.7 26 9.1 101650 60
2005-04-22 07:21:28 51°13.604 2°56.069 1.3 36 9.1 101650 60
2005-04-22 07:21:32 51°13.605 2°56.062 1.3 30 9.1 101650 59
2005-04-22 07:21:38 51°13.607 2°56.054 1.5 59 9.1 101650 59
2005-04-22 07:21:42 51°13.609 2°56.046 1.4 69 9.1 101650 59
2005-04-22 07:21:47 51°13.611 2°56.037 1.4 61 9.1 101650 59
2005-04-22 07:21:53 51°13.613 2°56.027 1.4 55 9.1 101650 60
2005-04-22 07:21:58 51°13.615 2°56.018 1 54 9.1 101650 60
2005-04-22 07:22:01 51°13.617 2°56.012 1 51 9.1 101650 60
2005-04-22 07:22:07 51°13.62 2°55.999 0.8 55 9.1 101650 60
2005-04-22 07:22:13 51°13.624 2°55.988 0.8 52 9.1 101650 59
2005-04-22 07:22:18 51°13.627 2°55.978 0.7 52 9.1 101650 59
2005-04-22 07:22:22 51°13.629 2°55.969 0.7 52 9.1 101650 59
2005-04-22 07:22:27 51°13.633 2°55.957 0.4 50 9.1 101650 59
2005-04-22 07:22:32 51°13.637 2°55.946 0.4 37 9.1 101650 59
2005-04-22 07:22:38 51°13.641 2°55.935 0.3 10 9.1 101650 59
2005-04-22 07:22:42 51°13.644 2°55.927 0.3 8 9.1 101650 60
2005-04-22 07:22:47 51°13.648 2°55.915 0.4 6 9.1 101650 60
2005-04-22 07:22:52 51°13.652 2°55.906 0.3 6 9.1 101660 60
2005-04-22 07:22:58 51°13.656 2°55.895 0.4 3 9.1 101660 60
2005-04-22 07:23:02 51°13.66 2°55.885 0.2 4 9.1 101660 60
2005-04-22 07:23:07 51°13.663 2°55.876 0.1 354 9.1 101660 60
2005-04-22 07:23:12 51°13.667 2°55.866 -999 352 9.1 101660 60
2005-04-22 07:23:17 51°13.67 2°55.858 -999 351 9.1 101660 60
2005-04-22 07:23:23 51°13.674 2°55.847 -999 349 9.1 101660 60
2005-04-22 07:23:27 51°13.676 2°55.838 -999 348 9.1 101660 60
2005-04-22 07:23:33 51°13.68 2°55.828 0.7 342 9.1 101660 60
2005-04-22 07:23:37 51°13.682 2°55.82 1 348 9.1 101660 60
2005-04-22 07:23:42 51°13.685 2°55.809 0.8 9 9.1 101660 60
2005-04-22 07:23:47 51°13.687 2°55.8 0.8 14 9.1 101660 60
2005-04-22 07:23:52 51°13.689 2°55.79 0.9 15 9.1 101650 60
2005-04-22 07:23:58 51°13.691 2°55.782 0.9 17 9.1 101650 60
2005-04-22 07:24:01 51°13.692 2°55.776 0.9 27 9.1 101650 60
2005-04-22 07:24:08 51°13.694 2°55.768 1.3 23 9.1 101650 60
2005-04-22 07:24:12 51°13.695 2°55.765 2 30 9.1 101660 60
2005-04-22 07:24:17 51°13.696 2°55.763 3.1 34 9.1 101660 60
2005-04-22 07:24:22 51°13.696 2°55.763 3.4 39 9.2 101660 60
2005-04-22 07:24:27 51°13.697 2°55.765 3.4 59 9.2 101660 60
2005-04-22 07:24:32 51°13.698 2°55.767 3.1 68 9.2 101650 60
2005-04-22 07:24:37 51°13.698 2°55.767 3.3 78 9.2 101650 60
2005-04-22 07:24:42 51°13.698 2°55.767 3.3 83 9.2 101650 59
2005-04-22 07:24:47 51°13.698 2°55.765 3 88 9.2 101650 59
2005-04-22 07:24:51 51°13.698 2°55.763 2.8 97 9.1 101650 58
2005-04-22 07:24:56 51°13.697 2°55.76 2.9 101 9.1 101650 58
2005-04-22 07:25:01 51°13.696 2°55.757 2.8 102 9.1 101650 58
2005-04-22 07:25:07 51°13.695 2°55.753 2.4 108 9.1 101650 58
2005-04-22 07:25:12 51°13.694 2°55.749 2.2 108 9.1 101660 59
2005-04-22 07:25:17 51°13.693 2°55.746 2.7 119 9.1 101660 59
2005-04-22 07:25:22 51°13.691 2°55.742 2.6 101 9.1 101650 59
2005-04-22 07:25:28 51°13.691 2°55.741 2.5 98 9.1 101650 59
2005-04-22 07:25:31 51°13.691 2°55.74 2.6 90 9.1 101660 60
2005-04-22 07:25:37 51°13.693 2°55.741 2.8 89 9.1 101660 60
2005-04-22 07:25:42 51°13.696 2°55.743 2.6 96 9.1 101660 61
2005-04-22 07:25:47 51°13.7 2°55.743 2.7 88 9.1 101660 61
2005-04-22 07:25:52 51°13.705 2°55.743 2.3 84 9.1 101650 62
2005-04-22 07:25:57 51°13.71 2°55.742 2.7 96 9.1 101650 62
2005-04-22 07:26:02 51°13.715 2°55.739 2.4 114 9.1 101650 62
2005-04-22 07:26:07 51°13.72 2°55.736 2.1 114 9.1 101650 62
2005-04-22 07:26:12 51°13.725 2°55.732 1.6 119 9.2 101650 62
2005-04-22 07:26:17 51°13.73 2°55.726 1.4 119 9.2 101650 62
2005-04-22 07:26:22 51°13.737 2°55.72 1.3 119 9.2 101650 61
2005-04-22 07:26:27 51°13.743 2°55.714 1 109 9.2 101650 61
2005-04-22 07:26:32 51°13.75 2°55.707 1 102 9.2 101660 60
2005-04-22 07:26:37 51°13.757 2°55.699 1.2 55 9.2 101660 60
2005-04-22 07:26:41 51°13.763 2°55.693 1.4 61 9.2 101650 60
2005-04-22 07:26:47 51°13.773 2°55.684 1.7 38 9.2 101650 60
2005-04-22 07:26:51 51°13.78 2°55.677 1.5 38 9.2 101650 60
2005-04-22 07:26:56 51°13.789 2°55.668 1.6 37 9.2 101650 60
2005-04-22 07:27:01 51°13.797 2°55.661 1.8 37 9.2 101660 60
2005-04-22 07:27:07 51°13.808 2°55.651 1.4 43 9.2 101660 60
2005-04-22 07:27:12 51°13.817 2°55.643 1.3 51 9.2 101660 60
2005-04-22 07:27:17 51°13.827 2°55.635 1.8 37 9.2 101660 60
2005-04-22 07:27:21 51°13.835 2°55.628 1.3 34 9.2 101660 59
2005-04-22 07:27:27 51°13.847 2°55.618 2.1 32 9.2 101660 59
2005-04-22 07:27:31 51°13.856 2°55.611 2 14 9.2 101660 59
2005-04-22 07:27:37 51°13.867 2°55.601 3.1 7 9.2 101660 59
2005-04-22 07:27:42 51°13.879 2°55.594 2.9 27 9.2 101660 59
2005-04-22 07:27:47 51°13.888 2°55.586 2.3 16 9.2 101660 59
2005-04-22 07:27:51 51°13.898 2°55.579 2.6 29 9.2 101660 59
2005-04-22 07:27:57 51°13.91 2°55.57 2.6 13 9.2 101660 59
2005-04-22 07:28:01 51°13.918 2°55.563 3.1 29 9.2 101660 60
2005-04-22 07:28:07 51°13.932 2°55.553 3.7 39 9.2 101660 60
2005-04-22 07:28:12 51°13.942 2°55.545 3.4 40 9.2 101660 60
2005-04-22 07:28:16 51°13.952 2°55.539 3.5 49 9.2 101660 60
2005-04-22 07:28:21 51°13.962 2°55.532 3.3 39 9.2 101660 60
2005-04-22 07:28:27 51°13.975 2°55.522 3.4 37 9.2 101660 60
2005-04-22 07:28:32 51°13.986 2°55.514 3.2 50 9.2 101660 60
2005-04-22 07:28:37 51°13.995 2°55.508 3.1 49 9.2 101660 60
2005-04-22 07:28:41 51°14.004 2°55.502 2.8 48 9.2 101660 60
2005-04-22 07:28:47 51°14.017 2°55.492 2.5 46 9.2 101660 60
2005-04-22 07:28:51 51°14.025 2°55.486 2.7 49 9.2 101650 60
2005-04-22 07:28:57 51°14.036 2°55.478 3 41 9.2 101650 60
2005-04-22 07:29:02 51°14.045 2°55.472 2.8 42 9.1 101650 60
2005-04-22 07:29:07 51°14.056 2°55.464 2.7 39 9.1 101650 60
2005-04-22 07:29:12 51°14.066 2°55.457 2.5 41 9.1 101660 59
2005-04-22 07:29:16 51°14.075 2°55.45 2.4 38 9.1 101660 59
2005-04-22 07:29:21 51°14.085 2°55.444 3 41 9.1 101650 60
2005-04-22 07:29:27 51°14.097 2°55.434 2.8 55 9.1 101650 60
2005-04-22 07:29:31 51°14.107 2°55.428 2.8 57 9.1 101660 60
2005-04-22 07:29:37 51°14.119 2°55.42 2.5 43 9.1 101660 60
2005-04-22 07:29:42 51°14.129 2°55.412 2.3 48 9.1 101660 59
2005-04-22 07:29:47 51°14.142 2°55.404 2 62 9.1 101660 59
2005-04-22 07:29:51 51°14.152 2°55.395 2.7 51 9 101660 60
2005-04-22 07:29:57 51°14.164 2°55.385 2.6 43 9 101660 60
2005-04-22 07:30:01 51°14.172 2°55.377 2.4 45 9 101650 60
2005-04-22 07:30:07 51°14.186 2°55.364 2.1 41 9 101650 60
2005-04-22 07:30:11 51°14.193 2°55.356 2 38 9 101650 60
2005-04-22 07:30:17 51°14.206 2°55.341 2.2 39 9 101650 60
2005-04-22 07:30:22 51°14.216 2°55.328 2.1 31 9 101660 60
2005-04-22 07:30:27 51°14.226 2°55.315 1.9 25 9 101660 60
2005-04-22 07:30:31 51°14.234 2°55.303 1.7 23 9 101660 60
2005-04-22 07:30:37 51°14.245 2°55.287 2 28 9 101660 60
2005-04-22 07:30:42 51°14.254 2°55.273 2 20 9 101650 59
2005-04-22 07:30:47 51°14.264 2°55.257 2.2 23 9 101650 59
2005-04-22 07:30:51 51°14.271 2°55.245 2.4 24 8.9 101660 60
2005-04-22 07:30:57 51°14.281 2°55.228 2.5 19 8.9 101660 60
2005-04-22 07:31:01 51°14.287 2°55.215 2.4 17 8.9 101660 60
2005-04-22 07:31:07 51°14.297 2°55.195 2.3 30 8.9 101660 60
2005-04-22 07:31:11 51°14.305 2°55.18 2.2 22 8.9 101660 60
2005-04-22 07:31:17 51°14.314 2°55.161 2.3 33 8.9 101660 60
2005-04-22 07:31:20 51°14.321 2°55.148 2.2 34 9 101660 61
2005-04-22 07:31:27 51°14.332 2°55.124 2.6 24 9 101660 61
2005-04-22 07:31:32 51°14.341 2°55.105 2.4 23 8.9 101650 61
2005-04-22 07:31:37 51°14.351 2°55.086 2.5 24 8.9 101650 61
2005-04-22 07:31:41 51°14.358 2°55.07 2.4 20 9 101660 60
2005-04-22 07:31:47 51°14.369 2°55.045 2.2 17 9 101660 60
2005-04-22 07:31:51 51°14.377 2°55.026 2.2 15 9 101650 60
2005-04-22 07:31:57 51°14.387 2°55.002 2.3 20 9 101650 60
2005-04-22 07:32:01 51°14.394 2°54.984 2.2 20 9 101660 61
2005-04-22 07:32:07 51°14.405 2°54.958 2.4 15 9 101660 61
2005-04-22 07:32:11 51°14.413 2°54.938 2.5 15 9 101650 61
2005-04-22 07:32:17 51°14.424 2°54.913 2.5 15 9 101650 61
2005-04-22 07:32:22 51°14.433 2°54.892 2.7 7 8.9 101650 60
2005-04-22 07:32:27 51°14.445 2°54.864 3.3 10 8.9 101650 60
2005-04-22 07:32:31 51°14.451 2°54.843 2.9 5 8.9 101650 60
2005-04-22 07:32:37 51°14.46 2°54.814 3 359 8.9 101650 60
2005-04-22 07:32:41 51°14.465 2°54.792 3.3 354 8.9 101650 60
2005-04-22 07:32:47 51°14.472 2°54.758 3.9 351 8.9 101650 60
2005-04-22 07:32:51 51°14.475 2°54.732 4.1 349 9 101660 61
2005-04-22 07:32:57 51°14.48 2°54.7 4 348 9 101660 61
2005-04-22 07:33:01 51°14.482 2°54.676 4.5 348 8.9 101650 60
2005-04-22 07:33:07 51°14.485 2°54.636 4.7 338 8.9 101650 60
2005-04-22 07:33:11 51°14.486 2°54.612 4.2 338 9 101650 62
2005-04-22 07:33:17 51°14.487 2°54.578 4.4 329 9 101650 62
2005-04-22 07:33:21 51°14.486 2°54.554 4.1 329 9 101650 62
2005-04-22 07:33:27 51°14.484 2°54.517 4.5 330 9 101650 62
2005-04-22 07:33:32 51°14.482 2°54.483 4.4 330 9 101650 62
2005-04-22 07:33:37 51°14.481 2°54.455 4.5 337 9 101650 62
2005-04-22 07:33:42 51°14.479 2°54.427 4.3 330 9 101640 61
2005-04-22 07:33:46 51°14.476 2°54.396 4.5 326 9 101640 61
2005-04-22 07:33:51 51°14.474 2°54.369 4.4 327 9 101640 60
2005-04-22 07:33:57 51°14.469 2°54.332 5 333 9 101640 60
2005-04-22 07:34:02 51°14.464 2°54.302 5.1 334 9 101650 61
2005-04-22 07:34:07 51°14.457 2°54.269 6 325 9 101650 61
2005-04-22 07:34:11 51°14.453 2°54.245 5.1 323 9 101640 60
2005-04-22 07:34:17 51°14.446 2°54.213 5.9 327 9 101640 60
2005-04-22 07:34:21 51°14.441 2°54.189 6.2 326 9 101640 61
2005-04-22 07:34:27 51°14.432 2°54.154 5.2 324 9 101640 61
2005-04-22 07:34:32 51°14.425 2°54.124 5.8 323 9 101640 60
2005-04-22 07:34:37 51°14.418 2°54.095 5.1 325 9 101640 60
2005-04-22 07:34:42 51°14.41 2°54.066 5.4 320 9.1 101640 59
2005-04-22 07:34:47 51°14.402 2°54.038 5.7 329 9.1 101640 59
2005-04-22 07:34:51 51°14.393 2°54.012 6 329 9 101640 58
2005-04-22 07:34:56 51°14.383 2°53.985 6.5 328 9 101640 58
2005-04-22 07:35:01 51°14.373 2°53.961 5.9 332 9.1 101630 58
2005-04-22 07:35:07 51°14.361 2°53.928 6.8 332 9.1 101630 58
2005-04-22 07:35:12 51°14.35 2°53.901 7.2 332 9.1 101640 58
2005-04-22 07:35:16 51°14.34 2°53.877 6.7 333 9.1 101640 58
2005-04-22 07:35:22 51°14.33 2°53.849 7 319 9.1 101640 59
2005-04-22 07:35:27 51°14.317 2°53.817 6.9 328 9.1 101640 59
2005-04-22 07:35:31 51°14.31 2°53.795 6.6 325 9.1 101630 59
2005-04-22 07:35:37 51°14.298 2°53.765 6.4 331 9.1 101630 59
2005-04-22 07:35:42 51°14.289 2°53.739 6.9 331 9.2 101640 59
2005-04-22 07:35:47 51°14.279 2°53.709 7.4 333 9.2 101640 59
2005-04-22 07:35:51 51°14.27 2°53.684 7.2 329 9.2 101630 57
2005-04-22 07:35:56 51°14.26 2°53.656 7.2 326 9.2 101630 57
2005-04-22 07:36:02 51°14.249 2°53.625 7.1 319 9.2 101640 57
2005-04-22 07:36:07 51°14.238 2°53.595 6.8 318 9.2 101640 57
2005-04-22 07:36:11 51°14.229 2°53.573 7.1 318 9.2 101640 56
2005-04-22 07:36:17 51°14.219 2°53.542 6.5 322 9.2 101640 56
2005-04-22 07:36:22 51°14.209 2°53.516 6.5 332 9.2 101630 56
2005-04-22 07:36:27 51°14.198 2°53.486 6.5 330 9.2 101630 56
2005-04-22 07:36:31 51°14.189 2°53.461 6.6 335 9.3 101630 56
2005-04-22 07:36:38 51°14.177 2°53.426 6.8 334 9.3 101630 56
2005-04-22 07:36:42 51°14.169 2°53.404 7.4 323 9.3 101630 56
2005-04-22 07:36:47 51°14.158 2°53.372 6.1 324 9.3 101630 56
2005-04-22 07:36:51 51°14.149 2°53.347 6.6 322 9.3 101630 56
2005-04-22 07:36:57 51°14.139 2°53.316 7.1 323 9.3 101630 56
2005-04-22 07:37:01 51°14.131 2°53.293 7 330 9.3 101630 57
2005-04-22 07:37:07 51°14.119 2°53.256 6.7 330 9.3 101630 57
2005-04-22 07:37:11 51°14.111 2°53.236 6.3 322 9.4 101630 55
2005-04-22 07:37:17 51°14.1 2°53.202 6.5 331 9.4 101630 55
2005-04-22 07:37:22 51°14.09 2°53.173 6.5 328 9.4 101630 55
2005-04-22 07:37:27 51°14.08 2°53.145 7.1 324 9.4 101630 55
2005-04-22 07:37:31 51°14.071 2°53.119 6.9 324 9.4 101630 55
2005-04-22 07:37:37 51°14.061 2°53.088 7.2 324 9.4 101630 55
2005-04-22 07:37:42 51°14.052 2°53.061 6.8 321 9.4 101630 56
2005-04-22 07:37:47 51°14.041 2°53.031 6.9 328 9.4 101630 56
2005-04-22 07:37:51 51°14.032 2°53.004 6.1 332 9.4 101630 56
2005-04-22 07:37:57 51°14.022 2°52.973 6.6 328 9.4 101630 56
2005-04-22 07:38:02 51°14.013 2°52.946 6.4 329 9.4 101630 54
2005-04-22 07:38:07 51°14.003 2°52.915 7.1 328 9.4 101630 54
2005-04-22 07:38:12 51°13.993 2°52.886 7.6 325 9.5 101630 55
2005-04-22 07:38:17 51°13.984 2°52.857 7.4 326 9.5 101630 55
2005-04-22 07:38:21 51°13.976 2°52.834 7.8 328 9.5 101640 56
2005-04-22 07:38:27 51°13.965 2°52.799 7 327 9.5 101640 56
2005-04-22 07:38:32 51°13.955 2°52.77 7.2 328 9.5 101630 55
2005-04-22 07:38:37 51°13.946 2°52.741 7.1 331 9.5 101630 55
2005-04-22 07:38:41 51°13.939 2°52.718 7.2 325 9.5 101630 54
2005-04-22 07:38:47 51°13.927 2°52.679 8 327 9.5 101630 54
2005-04-22 07:38:51 51°13.92 2°52.656 8.1 320 9.5 101630 54
2005-04-22 07:38:57 51°13.909 2°52.624 7.3 323 9.5 101630 54
2005-04-22 07:39:01 51°13.902 2°52.601 7.3 322 9.5 101630 55
2005-04-22 07:39:07 51°13.89 2°52.563 6.5 326 9.5 101630 55
2005-04-22 07:39:12 51°13.882 2°52.536 7.2 324 9.6 101630 54
2005-04-22 07:39:17 51°13.873 2°52.507 6.8 319 9.6 101630 54
2005-04-22 07:39:22 51°13.863 2°52.478 6.9 322 9.6 101630 53
2005-04-22 07:39:27 51°13.854 2°52.449 7.8 324 9.6 101630 53
2005-04-22 07:39:32 51°13.845 2°52.42 7.3 317 9.6 101630 52
2005-04-22 07:39:37 51°13.835 2°52.391 6.8 323 9.6 101630 52
2005-04-22 07:39:42 51°13.825 2°52.359 8.4 324 9.6 101630 52
2005-04-22 07:39:47 51°13.816 2°52.33 7.4 330 9.6 101630 52
2005-04-22 07:39:51 51°13.809 2°52.306 7.2 328 9.6 101630 51
2005-04-22 07:39:57 51°13.799 2°52.274 6.5 328 9.6 101630 51
2005-04-22 07:40:01 51°13.792 2°52.251 6.3 331 9.6 101630 51
2005-04-22 07:40:07 51°13.781 2°52.216 7.4 328 9.6 101630 51
2005-04-22 07:40:12 51°13.77 2°52.183 7.2 335 9.7 101630 51
2005-04-22 07:40:17 51°13.762 2°52.157 6.8 328 9.7 101630 51
2005-04-22 07:40:21 51°13.755 2°52.134 7.6 336 9.7 101630 53
2005-04-22 07:40:27 51°13.743 2°52.096 7.9 334 9.7 101630 53
2005-04-22 07:40:32 51°13.735 2°52.07 7.8 330 9.7 101630 53
2005-04-22 07:40:37 51°13.725 2°52.041 7.2 331 9.7 101630 53
2005-04-22 07:40:42 51°13.717 2°52.014 7.1 329 9.7 101630 54
2005-04-22 07:40:47 51°13.706 2°51.984 7.5 330 9.7 101630 54
2005-04-22 07:40:52 51°13.695 2°51.952 7.7 325 9.7 101630 54
2005-04-22 07:40:57 51°13.687 2°51.926 7.7 332 9.7 101630 54
2005-04-22 07:41:02 51°13.677 2°51.897 7.2 325 9.7 101630 54
2005-04-22 07:41:07 51°13.667 2°51.868 7.4 335 9.7 101630 54
2005-04-22 07:41:11 51°13.66 2°51.845 7.1 332 9.7 101620 54
2005-04-22 07:41:18 51°13.647 2°51.807 7.2 334 9.7 101620 54
2005-04-22 07:41:21 51°13.64 2°51.788 7.9 335 9.7 101630 52
2005-04-22 07:41:27 51°13.628 2°51.75 7.3 332 9.7 101630 52
2005-04-22 07:41:31 51°13.62 2°51.728 7.8 324 9.7 101630 54
2005-04-22 07:41:37 51°13.609 2°51.696 8.3 327 9.7 101630 54
2005-04-22 07:41:42 51°13.599 2°51.664 7.1 326 9.7 101630 54
2005-04-22 07:41:47 51°13.588 2°51.636 7 322 9.7 101630 54
2005-04-22 07:41:52 51°13.579 2°51.611 7.6 324 9.7 101630 53
2005-04-22 07:41:57 51°13.569 2°51.582 7.6 330 9.7 101630 53
2005-04-22 07:42:02 51°13.559 2°51.557 6.9 333 9.7 101630 53
2005-04-22 07:42:07 51°13.546 2°51.524 6.9 335 9.7 101630 53
2005-04-22 07:42:11 51°13.538 2°51.502 7.7 332 9.7 101630 52
2005-04-22 07:42:17 51°13.526 2°51.47 6.9 335 9.7 101630 52
2005-04-22 07:42:22 51°13.516 2°51.445 7.9 331 9.7 101630 54
2005-04-22 07:42:27 51°13.505 2°51.415 7.7 333 9.7 101630 54
2005-04-22 07:42:32 51°13.493 2°51.384 7.6 334 9.7 101630 55
2005-04-22 07:42:37 51°13.484 2°51.359 8.2 331 9.7 101630 55
2005-04-22 07:42:42 51°13.472 2°51.329 7.9 332 9.7 101630 55
2005-04-22 07:42:47 51°13.463 2°51.303 7.9 333 9.7 101630 55
2005-04-22 07:42:52 51°13.451 2°51.275 8.1 335 9.7 101630 56
2005-04-22 07:42:57 51°13.441 2°51.247 8.5 332 9.7 101630 56
2005-04-22 07:43:01 51°13.433 2°51.225 8.5 325 9.7 101630 56
2005-04-22 07:43:07 51°13.419 2°51.189 8.5 328 9.7 101630 56
2005-04-22 07:43:11 51°13.41 2°51.167 8.5 328 9.7 101630 56
2005-04-22 07:43:16 51°13.399 2°51.139 8 335 9.7 101630 56
2005-04-22 07:43:21 51°13.39 2°51.113 8.4 328 9.7 101630 56
2005-04-22 07:43:27 51°13.375 2°51.078 7.8 327 9.7 101630 56
2005-04-22 07:43:31 51°13.367 2°51.055 8 326 9.7 101630 55
2005-04-22 07:43:38 51°13.353 2°51.022 7.5 331 9.7 101630 55
2005-04-22 07:43:42 51°13.345 2°51 8.1 332 9.7 101630 55
2005-04-22 07:43:47 51°13.333 2°50.97 8.4 329 9.7 101630 55
2005-04-22 07:43:52 51°13.321 2°50.94 8.9 327 9.7 101630 55
2005-04-22 07:43:57 51°13.312 2°50.915 8.4 324 9.7 101630 55
2005-04-22 07:44:02 51°13.301 2°50.887 8.1 330 9.7 101630 56
2005-04-22 07:44:07 51°13.289 2°50.857 8.5 328 9.7 101630 56
2005-04-22 07:44:11 51°13.281 2°50.835 8.7 325 9.7 101630 56
2005-04-22 07:44:18 51°13.268 2°50.801 9 323 9.7 101630 56
2005-04-22 07:44:22 51°13.258 2°50.777 9 323 9.7 101630 54
2005-04-22 07:44:27 51°13.247 2°50.746 9.2 325 9.7 101630 54
2005-04-22 07:44:31 51°13.238 2°50.724 8.7 322 9.7 101620 55
2005-04-22 07:44:37 51°13.227 2°50.694 8.9 319 9.7 101620 55
2005-04-22 07:44:42 51°13.214 2°50.663 8.6 320 9.7 101630 55
2005-04-22 07:44:47 51°13.203 2°50.636 8.2 322 9.7 101630 55
2005-04-22 07:44:51 51°13.195 2°50.614 7.9 325 9.7 101630 54
2005-04-22 07:44:57 51°13.183 2°50.584 7.9 323 9.7 101630 54
2005-04-22 07:45:02 51°13.17 2°50.553 7.7 329 9.7 101630 55
2005-04-22 07:45:07 51°13.161 2°50.528 7.6 330 9.7 101630 55
2005-04-22 07:45:11 51°13.151 2°50.504 7.7 329 9.7 101630 56
2005-04-22 07:45:17 51°13.138 2°50.473 8.3 330 9.7 101630 56
2005-04-22 07:45:21 51°13.129 2°50.451 8.6 330 9.6 101630 57
2005-04-22 07:45:27 51°13.116 2°50.418 8.9 325 9.6 101630 57
2005-04-22 07:45:31 51°13.106 2°50.394 8.5 321 9.6 101630 58
2005-04-22 07:45:37 51°13.093 2°50.364 8.1 322 9.6 101630 58
2005-04-22 07:45:42 51°13.083 2°50.338 8 324 9.6 101630 57
2005-04-22 07:45:47 51°13.071 2°50.308 8.5 328 9.6 101630 57
2005-04-22 07:45:51 51°13.062 2°50.286 8.3 330 9.6 101630 56
2005-04-22 07:45:57 51°13.049 2°50.253 9.2 322 9.6 101630 56
2005-04-22 07:46:02 51°13.038 2°50.225 8.3 324 9.6 101620 55
2005-04-22 07:46:07 51°13.027 2°50.198 8.1 320 9.6 101620 55
2005-04-22 07:46:12 51°13.015 2°50.17 7.6 320 9.6 101630 56
2005-04-22 07:46:17 51°13.004 2°50.143 8.3 316 9.6 101630 56
2005-04-22 07:46:22 51°12.993 2°50.115 7.5 324 9.6 101630 55
2005-04-22 07:46:27 51°12.981 2°50.085 7.9 326 9.6 101630 55
2005-04-22 07:46:31 51°12.972 2°50.063 7.4 327 9.6 101630 55
2005-04-22 07:46:36 51°12.96 2°50.035 7.4 325 9.6 101630 55
2005-04-22 07:46:41 51°12.951 2°50.01 7.1 327 9.6 101620 55
2005-04-22 07:46:47 51°12.936 2°49.974 7.4 329 9.6 101620 55
2005-04-22 07:46:51 51°12.928 2°49.952 7.9 325 9.5 101630 53
2005-04-22 07:46:56 51°12.916 2°49.924 7.8 326 9.5 101630 53
2005-04-22 07:47:02 51°12.904 2°49.893 7.8 323 9.5 101630 54
2005-04-22 07:47:07 51°12.893 2°49.866 8 323 9.5 101630 54
2005-04-22 07:47:11 51°12.884 2°49.84 7.2 324 9.6 101630 56
2005-04-22 07:47:17 51°12.871 2°49.81 7.1 327 9.6 101630 56
2005-04-22 07:47:21 51°12.862 2°49.787 7.4 327 9.5 101630 55
2005-04-22 07:47:27 51°12.848 2°49.751 7.5 324 9.5 101630 55
2005-04-22 07:47:31 51°12.839 2°49.729 7.3 326 9.5 101630 54
2005-04-22 07:47:37 51°12.828 2°49.698 7.9 322 9.5 101630 54
2005-04-22 07:47:42 51°12.817 2°49.673 6.9 327 9.5 101630 55
2005-04-22 07:47:47 51°12.806 2°49.643 7 326 9.5 101630 55
2005-04-22 07:47:52 51°12.794 2°49.615 6.8 330 9.5 101630 56
2005-04-22 07:47:56 51°12.784 2°49.591 7.4 324 9.5 101630 56
2005-04-22 07:48:01 51°12.774 2°49.566 6.9 330 9.5 101640 57
2005-04-22 07:48:07 51°12.76 2°49.533 7.2 329 9.5 101640 57
2005-04-22 07:48:11 51°12.751 2°49.508 7.4 331 9.5 101630 56
2005-04-22 07:48:17 51°12.738 2°49.478 7.6 326 9.5 101630 56
2005-04-22 07:48:21 51°12.73 2°49.455 7.7 327 9.5 101630 57
2005-04-22 07:48:27 51°12.715 2°49.42 7.1 329 9.5 101630 57
2005-04-22 07:48:31 51°12.707 2°49.398 7.3 327 9.5 101630 58
2005-04-22 07:48:37 51°12.694 2°49.367 7 330 9.5 101630 58
2005-04-22 07:48:40 51°12.687 2°49.347 7.2 331 9.5 101630 57
2005-04-22 07:48:47 51°12.672 2°49.309 6.9 332 9.5 101630 57
2005-04-22 07:48:51 51°12.662 2°49.286 7.3 326 9.4 101630 57
2005-04-22 07:48:57 51°12.651 2°49.256 7.4 331 9.4 101630 57
2005-04-22 07:49:02 51°12.64 2°49.231 7.6 330 9.4 101630 57
2005-04-22 07:49:07 51°12.628 2°49.197 7.4 330 9.4 101630 57
2005-04-22 07:49:12 51°12.616 2°49.17 7.2 332 9.4 101630 57
2005-04-22 07:49:17 51°12.607 2°49.145 7 328 9.4 101630 57
2005-04-22 07:49:22 51°12.595 2°49.118 7.5 328 9.4 101630 58
2005-04-22 07:49:27 51°12.585 2°49.09 6.7 330 9.4 101630 58
2005-04-22 07:49:31 51°12.575 2°49.065 7.5 326 9.4 101640 59
2005-04-22 07:49:37 51°12.563 2°49.035 7.4 330 9.4 101640 59
2005-04-22 07:49:41 51°12.554 2°49.013 7.6 333 9.4 101630 59
2005-04-22 07:49:47 51°12.541 2°48.98 7.7 326 9.4 101630 59
2005-04-22 07:49:51 51°12.531 2°48.955 6.9 329 9.4 101630 57
2005-04-22 07:49:57 51°12.519 2°48.924 7.8 329 9.4 101630 57
2005-04-22 07:50:01 51°12.51 2°48.903 7.9 337 9.4 101640 56
2005-04-22 07:50:06 51°12.498 2°48.872 8.1 324 9.4 101640 56
2005-04-22 07:50:12 51°12.486 2°48.841 7.8 323 9.4 101630 56
2005-04-22 07:50:17 51°12.475 2°48.814 7 329 9.4 101630 56
2005-04-22 07:50:22 51°12.463 2°48.784 6.9 324 9.4 101640 57
2005-04-22 07:50:27 51°12.453 2°48.759 6.9 327 9.4 101640 57
2005-04-22 07:50:31 51°12.445 2°48.737 7.4 333 9.4 101640 57
2005-04-22 07:50:37 51°12.431 2°48.704 7.6 333 9.4 101640 57
2005-04-22 07:50:41 51°12.423 2°48.681 7.5 333 9.4 101630 58
2005-04-22 07:50:47 51°12.408 2°48.646 7.7 332 9.4 101630 58
2005-04-22 07:50:51 51°12.4 2°48.623 7.5 333 9.4 101640 59
2005-04-22 07:50:56 51°12.389 2°48.596 7.7 333 9.4 101640 59
2005-04-22 07:51:02 51°12.377 2°48.565 8.1 334 9.4 101640 59
2005-04-22 07:51:07 51°12.365 2°48.536 7.8 331 9.4 101640 59
2005-04-22 07:51:12 51°12.354 2°48.508 7.6 327 9.4 101640 59
2005-04-22 07:51:16 51°12.345 2°48.486 7.1 330 9.4 101640 59
2005-04-22 07:51:21 51°12.335 2°48.461 8.4 330 9.4 101630 59
2005-04-22 07:51:27 51°12.322 2°48.429 7.4 329 9.4 101630 59
2005-04-22 07:51:31 51°12.312 2°48.404 7.8 334 9.4 101630 57
2005-04-22 07:51:36 51°12.301 2°48.376 8.1 330 9.4 101630 57
2005-04-22 07:51:42 51°12.29 2°48.348 7.6 334 9.4 101640 58
2005-04-22 07:51:47 51°12.279 2°48.319 8.3 332 9.4 101640 58
2005-04-22 07:51:52 51°12.267 2°48.288 7.7 335 9.4 101640 58
2005-04-22 07:51:56 51°12.258 2°48.266 8.1 331 9.4 101640 58
2005-04-22 07:52:02 51°12.247 2°48.239 8 332 9.4 101630 58
2005-04-22 07:52:07 51°12.235 2°48.209 8.9 335 9.4 101630 58
2005-04-22 07:52:12 51°12.224 2°48.179 7.8 335 9.4 101640 60
2005-04-22 07:52:16 51°12.215 2°48.157 8.6 326 9.4 101640 60
2005-04-22 07:52:21 51°12.205 2°48.132 8.1 331 9.4 101630 58
2005-04-22 07:52:27 51°12.191 2°48.096 8.1 330 9.4 101630 58
2005-04-22 07:52:31 51°12.183 2°48.074 7.9 331 9.4 101630 58
2005-04-22 07:52:37 51°12.171 2°48.044 8.3 331 9.4 101630 58
2005-04-22 07:52:42 51°12.161 2°48.019 8.6 329 9.4 101630 57
2005-04-22 07:52:47 51°12.149 2°47.989 8.7 331 9.4 101630 57
2005-04-22 07:52:51 51°12.139 2°47.965 7.8 331 9.4 101630 57
2005-04-22 07:52:57 51°12.127 2°47.935 8.1 329 9.4 101630 57
2005-04-22 07:53:02 51°12.117 2°47.909 7.8 330 9.4 101640 57
2005-04-22 07:53:07 51°12.106 2°47.88 7.9 330 9.4 101640 57
2005-04-22 07:53:12 51°12.095 2°47.852 8.8 325 9.4 101630 57
2005-04-22 07:53:17 51°12.084 2°47.825 8 329 9.4 101630 57
2005-04-22 07:53:22 51°12.072 2°47.794 8.3 329 9.4 101630 56
2005-04-22 07:53:27 51°12.063 2°47.77 7.6 327 9.4 101630 56
2005-04-22 07:53:32 51°12.052 2°47.742 8.1 327 9.4 101630 57
2005-04-22 07:53:37 51°12.041 2°47.715 7.5 327 9.4 101630 57
2005-04-22 07:53:41 51°12.033 2°47.693 7.3 330 9.4 101630 56
2005-04-22 07:53:47 51°12.018 2°47.657 7.6 330 9.4 101630 56
2005-04-22 07:53:52 51°12.008 2°47.629 8 334 9.4 101630 56
2005-04-22 07:53:57 51°11.998 2°47.605 7.8 335 9.4 101630 56
2005-04-22 07:54:01 51°11.99 2°47.582 8.2 339 9.4 101640 57
2005-04-22 07:54:07 51°11.977 2°47.55 8.1 335 9.4 101640 57
2005-04-22 07:54:12 51°11.965 2°47.52 8 335 9.3 101640 57
2005-04-22 07:54:17 51°11.955 2°47.495 7.6 340 9.3 101640 57
2005-04-22 07:54:22 51°11.945 2°47.47 7.8 338 9.4 101630 58
2005-04-22 07:54:27 51°11.933 2°47.441 8 336 9.4 101630 58
2005-04-22 07:54:31 51°11.923 2°47.416 8.1 334 9.4 101630 58
2005-04-22 07:54:37 51°11.911 2°47.386 8.2 333 9.4 101630 58
2005-04-22 07:54:42 51°11.899 2°47.356 7.2 334 9.4 101630 59
2005-04-22 07:54:47 51°11.889 2°47.332 7.9 333 9.4 101630 59
2005-04-22 07:54:51 51°11.879 2°47.308 7.9 337 9.4 101640 59
2005-04-22 07:54:57 51°11.867 2°47.278 8 337 9.4 101640 59
2005-04-22 07:55:02 51°11.857 2°47.25 7.5 340 9.4 101630 57
2005-04-22 07:55:07 51°11.845 2°47.221 7.6 339 9.4 101630 57
2005-04-22 07:55:11 51°11.836 2°47.199 8.1 337 9.3 101640 57
2005-04-22 07:55:17 51°11.825 2°47.168 7.7 337 9.3 101640 57
2005-04-22 07:55:22 51°11.814 2°47.14 7.6 338 9.4 101630 57
2005-04-22 07:55:27 51°11.804 2°47.109 7.8 335 9.4 101630 57
2005-04-22 07:55:31 51°11.796 2°47.087 7.1 338 9.4 101640 58
2005-04-22 07:55:37 51°11.786 2°47.055 7.5 336 9.4 101640 58
2005-04-22 07:55:41 51°11.778 2°47.033 7.7 338 9.4 101640 57
2005-04-22 07:55:47 51°11.766 2°46.996 7.9 337 9.4 101640 57
2005-04-22 07:55:52 51°11.757 2°46.97 7.1 339 9.4 101640 57
2005-04-22 07:55:57 51°11.747 2°46.942 7 336 9.4 101640 57
2005-04-22 07:56:02 51°11.738 2°46.916 7.1 337 9.4 101630 57
2005-04-22 07:56:07 51°11.728 2°46.885 6.9 339 9.4 101630 57
2005-04-22 07:56:12 51°11.718 2°46.856 7.4 337 9.4 101640 57
2005-04-22 07:56:17 51°11.709 2°46.828 8.4 334 9.4 101640 57
2005-04-22 07:56:22 51°11.699 2°46.799 7.2 334 9.4 101630 58
2005-04-22 07:56:27 51°11.689 2°46.768 7.5 328 9.4 101630 58
2005-04-22 07:56:31 51°11.681 2°46.745 7.9 330 9.4 101630 58
2005-04-22 07:56:37 51°11.67 2°46.714 7.6 323 9.4 101630 58
2005-04-22 07:56:41 51°11.663 2°46.691 7.2 333 9.4 101630 59
2005-04-22 07:56:47 51°11.651 2°46.656 7.1 342 9.4 101630 59
2005-04-22 07:56:52 51°11.642 2°46.628 6.5 334 9.4 101630 59
2005-04-22 07:56:57 51°11.632 2°46.599 6.3 342 9.4 101630 59
2005-04-22 07:57:02 51°11.622 2°46.568 6.7 340 9.4 101630 60
2005-04-22 07:57:07 51°11.614 2°46.542 6.8 337 9.4 101630 60
2005-04-22 07:57:11 51°11.606 2°46.515 7.1 340 9.4 101630 60
2005-04-22 07:57:17 51°11.597 2°46.483 6.5 344 9.4 101630 60
2005-04-22 07:57:22 51°11.588 2°46.45 4.4 339 9.4 101640 60
2005-04-22 07:57:27 51°11.581 2°46.423 7 335 9.4 101640 60
2005-04-22 07:57:31 51°11.575 2°46.399 7.6 335 9.4 101640 60
2005-04-22 07:57:37 51°11.565 2°46.364 6.9 332 9.4 101640 60
2005-04-22 07:57:41 51°11.559 2°46.34 6.5 334 9.4 101630 60
2005-04-22 07:57:47 51°11.549 2°46.304 7.4 340 9.4 101630 60
2005-04-22 07:57:52 51°11.541 2°46.274 7.7 339 9.4 101640 60
2005-04-22 07:57:57 51°11.533 2°46.245 7.5 340 9.4 101640 60
2005-04-22 07:58:01 51°11.526 2°46.221 7.1 338 9.4 101640 59
2005-04-22 07:58:07 51°11.516 2°46.182 7.9 336 9.4 101640 59
2005-04-22 07:58:11 51°11.509 2°46.159 7.2 334 9.4 101640 60
2005-04-22 07:58:16 51°11.501 2°46.13 7.8 333 9.4 101640 60
2005-04-22 07:58:21 51°11.493 2°46.103 7.4 331 9.4 101640 60
2005-04-22 07:58:26 51°11.484 2°46.07 7.5 334 9.4 101640 60
2005-04-22 07:58:31 51°11.476 2°46.04 7.1 335 9.4 101630 60
2005-04-22 07:58:37 51°11.467 2°46.008 8 329 9.4 101630 60
2005-04-22 07:58:41 51°11.461 2°45.984 7.8 332 9.3 101640 58
2005-04-22 07:58:47 51°11.451 2°45.949 7.2 332 9.3 101640 58
2005-04-22 07:58:51 51°11.443 2°45.922 7.3 334 9.3 101630 59
2005-04-22 07:58:57 51°11.434 2°45.889 7.3 334 9.3 101630 59
2005-04-22 07:59:01 51°11.428 2°45.865 6.9 337 9.4 101630 59
2005-04-22 07:59:07 51°11.418 2°45.83 7.3 334 9.4 101630 59
2005-04-22 07:59:12 51°11.409 2°45.797 7 340 9.3 101640 59
2005-04-22 07:59:16 51°11.402 2°45.774 7.2 335 9.3 101640 59
2005-04-22 07:59:22 51°11.393 2°45.741 6.9 340 9.3 101640 60
2005-04-22 07:59:27 51°11.385 2°45.712 7.6 333 9.3 101640 60
2005-04-22 07:59:32 51°11.376 2°45.679 7.4 333 9.3 101640 60
2005-04-22 07:59:37 51°11.369 2°45.652 7.5 331 9.3 101640 60
2005-04-22 07:59:41 51°11.363 2°45.628 7 328 9.3 101640 60
2005-04-22 07:59:47 51°11.353 2°45.593 6.9 338 9.3 101640 60
2005-04-22 07:59:51 51°11.346 2°45.566 7.5 336 9.3 101630 60
2005-04-22 07:59:57 51°11.337 2°45.534 7.6 335 9.3 101630 60
2005-04-22 08:00:02 51°11.329 2°45.504 7.2 335 9.3 101640 60
2005-04-22 08:00:07 51°11.321 2°45.475 7.2 334 9.3 101640 60
2005-04-22 08:00:12 51°11.312 2°45.443 7.1 335 9.3 101640 61
2005-04-22 08:00:16 51°11.306 2°45.419 7.5 335 9.3 101640 61
2005-04-22 08:00:22 51°11.297 2°45.389 7.3 332 9.3 101640 61
2005-04-22 08:00:27 51°11.289 2°45.358 7.4 337 9.3 101640 61
2005-04-22 08:00:31 51°11.281 2°45.331 7 341 9.3 101630 59
2005-04-22 08:00:37 51°11.272 2°45.299 7.5 338 9.3 101630 59
2005-04-22 08:00:42 51°11.264 2°45.266 6.9 341 9.3 101640 59
2005-04-22 08:00:47 51°11.256 2°45.24 6.9 336 9.3 101640 59
2005-04-22 08:00:51 51°11.249 2°45.214 7.2 336 9.3 101640 61
2005-04-22 08:00:57 51°11.24 2°45.182 7 338 9.3 101640 61
2005-04-22 08:01:01 51°11.233 2°45.158 7.1 332 9.3 101630 61
2005-04-22 08:01:07 51°11.223 2°45.119 7.4 336 9.3 101630 61
2005-04-22 08:01:12 51°11.215 2°45.093 7.3 340 9.3 101630 61
2005-04-22 08:01:17 51°11.207 2°45.063 6.7 342 9.3 101630 61
2005-04-22 08:01:21 51°11.201 2°45.04 7 345 9.3 101630 61
2005-04-22 08:01:27 51°11.19 2°45.002 7.2 338 9.3 101630 61
2005-04-22 08:01:31 51°11.184 2°44.978 7.2 341 9.3 101640 61
2005-04-22 08:01:37 51°11.175 2°44.946 7.3 337 9.3 101640 61
2005-04-22 08:01:42 51°11.166 2°44.916 7.6 336 9.3 101640 62
2005-04-22 08:01:47 51°11.157 2°44.884 7.4 342 9.3 101640 62
2005-04-22 08:01:52 51°11.15 2°44.857 7.6 338 9.3 101630 61
2005-04-22 08:01:57 51°11.143 2°44.828 7.3 339 9.3 101630 61
2005-04-22 08:02:02 51°11.135 2°44.801 7.2 338 9.3 101630 61
2005-04-22 08:02:07 51°11.126 2°44.766 7 341 9.3 101630 61
2005-04-22 08:02:11 51°11.119 2°44.742 7 343 9.4 101630 61
2005-04-22 08:02:17 51°11.111 2°44.709 7.3 339 9.4 101630 61
2005-04-22 08:02:21 51°11.104 2°44.686 7 341 9.3 101640 61
2005-04-22 08:02:27 51°11.094 2°44.647 7 341 9.3 101640 61
2005-04-22 08:02:32 51°11.087 2°44.62 6.7 343 9.3 101630 61
2005-04-22 08:02:37 51°11.078 2°44.592 7 334 9.3 101630 61
2005-04-22 08:02:41 51°11.072 2°44.568 6.1 340 9.4 101640 61
2005-04-22 08:02:47 51°11.061 2°44.53 6.7 339 9.4 101640 61
2005-04-22 08:02:51 51°11.055 2°44.506 6.7 343 9.4 101640 61
2005-04-22 08:02:57 51°11.046 2°44.473 6.9 339 9.4 101640 61
2005-04-22 08:03:02 51°11.038 2°44.444 7 335 9.3 101630 61
2005-04-22 08:03:07 51°11.03 2°44.415 6.4 335 9.3 101630 61
2005-04-22 08:03:12 51°11.021 2°44.382 7.2 335 9.4 101640 61
2005-04-22 08:03:17 51°11.014 2°44.356 6.8 337 9.4 101640 61
2005-04-22 08:03:22 51°11.006 2°44.329 7 340 9.4 101630 61
2005-04-22 08:03:27 51°10.996 2°44.295 6.8 338 9.4 101630 61
2005-04-22 08:03:32 51°10.989 2°44.269 6.5 342 9.3 101640 61
2005-04-22 08:03:37 51°10.981 2°44.24 6.6 341 9.3 101640 61
2005-04-22 08:03:41 51°10.974 2°44.217 6.8 343 9.4 101640 61
2005-04-22 08:03:47 51°10.963 2°44.18 6.9 340 9.4 101640 61
2005-04-22 08:03:52 51°10.956 2°44.153 7.1 337 9.4 101640 61
2005-04-22 08:03:57 51°10.948 2°44.124 6.4 336 9.4 101640 61
2005-04-22 08:04:02 51°10.939 2°44.093 7.3 334 9.4 101640 62
2005-04-22 08:04:07 51°10.931 2°44.064 6.9 335 9.4 101640 62
2005-04-22 08:04:11 51°10.925 2°44.041 7 336 9.4 101640 62
2005-04-22 08:04:17 51°10.916 2°44.009 6.6 340 9.4 101640 62
2005-04-22 08:04:22 51°10.908 2°43.982 6.7 336 9.4 101630 61
2005-04-22 08:04:27 51°10.899 2°43.948 6 338 9.4 101630 61
2005-04-22 08:04:31 51°10.892 2°43.925 6.9 342 9.4 101640 59
2005-04-22 08:04:36 51°10.884 2°43.896 6.3 339 9.4 101640 59
2005-04-22 08:04:42 51°10.876 2°43.867 7 338 9.4 101630 59
2005-04-22 08:04:47 51°10.866 2°43.834 6.4 341 9.4 101630 59
2005-04-22 08:04:51 51°10.86 2°43.81 7.2 345 9.4 101640 60
2005-04-22 08:04:57 51°10.851 2°43.779 6.8 343 9.4 101640 60
2005-04-22 08:05:02 51°10.844 2°43.749 7.3 338 9.4 101630 61
2005-04-22 08:05:07 51°10.834 2°43.719 6.8 339 9.4 101630 61
2005-04-22 08:05:12 51°10.827 2°43.692 7.2 337 9.4 101640 61
2005-04-22 08:05:17 51°10.819 2°43.663 7.6 339 9.4 101640 61
2005-04-22 08:05:20 51°10.814 2°43.643 7.4 335 9.4 101640 61
2005-04-22 08:05:26 51°10.805 2°43.611 7.4 338 9.4 101640 61
2005-04-22 08:05:32 51°10.794 2°43.574 7.5 337 9.4 101630 61
2005-04-22 08:05:37 51°10.787 2°43.548 8.2 337 9.4 101630 61
2005-04-22 08:05:40 51°10.781 2°43.528 8 335 9.4 101640 60
2005-04-22 08:05:47 51°10.771 2°43.49 7.9 335 9.4 101640 60
2005-04-22 08:05:51 51°10.763 2°43.464 7.7 338 9.4 101640 61
2005-04-22 08:05:58 51°10.754 2°43.428 7.6 337 9.4 101640 61
2005-04-22 08:06:02 51°10.747 2°43.406 7.5 336 9.4 101630 60
2005-04-22 08:06:07 51°10.739 2°43.374 7.3 345 9.4 101630 60
2005-04-22 08:06:12 51°10.731 2°43.345 7.1 340 9.4 101630 60
2005-04-22 08:06:17 51°10.723 2°43.316 6.7 339 9.4 101630 60
2005-04-22 08:06:20 51°10.717 2°43.296 7.3 340 9.4 101630 59
2005-04-22 08:06:27 51°10.706 2°43.255 6.4 339 9.4 101630 59
2005-04-22 08:06:31 51°10.7 2°43.235 6.6 339 9.4 101630 60
2005-04-22 08:06:37 51°10.69 2°43.2 7 341 9.4 101630 60
2005-04-22 08:06:42 51°10.682 2°43.172 7.6 334 9.4 101630 60
2005-04-22 08:06:47 51°10.674 2°43.143 7 339 9.4 101630 60
2005-04-22 08:06:52 51°10.666 2°43.113 6.7 342 9.4 101630 60
2005-04-22 08:06:57 51°10.658 2°43.084 7.2 332 9.4 101630 60
2005-04-22 08:07:02 51°10.649 2°43.053 6.8 342 9.4 101630 60
2005-04-22 08:07:07 51°10.642 2°43.027 6.9 334 9.4 101630 60
2005-04-22 08:07:11 51°10.634 2°43.001 6.5 341 9.4 101640 61
2005-04-22 08:07:17 51°10.625 2°42.97 7.3 343 9.4 101640 61
2005-04-22 08:07:21 51°10.619 2°42.946 7.1 347 9.4 101640 61
2005-04-22 08:07:27 51°10.609 2°42.912 7.1 342 9.4 101640 61
2005-04-22 08:07:32 51°10.6 2°42.88 7.3 344 9.4 101630 62
2005-04-22 08:07:37 51°10.593 2°42.854 7.4 345 9.4 101630 62
2005-04-22 08:07:40 51°10.587 2°42.834 7.4 344 9.4 101640 61
2005-04-22 08:07:47 51°10.576 2°42.796 7.9 341 9.4 101640 61
2005-04-22 08:07:51 51°10.569 2°42.77 7.6 341 9.4 101630 61
2005-04-22 08:07:57 51°10.56 2°42.739 7.5 343 9.4 101630 61
2005-04-22 08:08:00 51°10.555 2°42.718 7.8 341 9.4 101630 61
2005-04-22 08:08:07 51°10.544 2°42.681 7 344 9.4 101630 61
2005-04-22 08:08:11 51°10.537 2°42.658 7.4 343 9.5 101630 62
2005-04-22 08:08:17 51°10.527 2°42.624 7.2 346 9.5 101630 62
2005-04-22 08:08:21 51°10.521 2°42.601 7.1 340 9.5 101630 60
2005-04-22 08:08:27 51°10.51 2°42.563 6.8 343 9.5 101630 60
2005-04-22 08:08:31 51°10.503 2°42.54 8 335 9.4 101640 60
2005-04-22 08:08:37 51°10.495 2°42.508 7.3 346 9.4 101640 60
2005-04-22 08:08:41 51°10.488 2°42.485 7.1 341 9.5 101630 61
2005-04-22 08:08:47 51°10.478 2°42.447 7.4 344 9.5 101630 61
2005-04-22 08:08:51 51°10.472 2°42.424 7.4 339 9.5 101630 61
2005-04-22 08:08:57 51°10.463 2°42.392 6.8 339 9.5 101630 61
2005-04-22 08:09:02 51°10.454 2°42.361 7.3 340 9.5 101630 61
2005-04-22 08:09:07 51°10.446 2°42.331 7.7 344 9.5 101630 61
2005-04-22 08:09:11 51°10.44 2°42.312 7.4 343 9.5 101630 61
2005-04-22 08:09:17 51°10.43 2°42.277 7.3 343 9.5 101630 61
2005-04-22 08:09:22 51°10.422 2°42.247 7.6 341 9.5 101630 60
2005-04-22 08:09:27 51°10.414 2°42.215 7 343 9.5 101630 60
2005-04-22 08:09:31 51°10.408 2°42.192 7.1 339 9.5 101630 60
2005-04-22 08:09:37 51°10.401 2°42.159 7 337 9.5 101630 60
2005-04-22 08:09:42 51°10.395 2°42.131 6.6 342 9.5 101630 61
2005-04-22 08:09:47 51°10.388 2°42.099 6.7 341 9.5 101630 61
2005-04-22 08:09:51 51°10.383 2°42.071 6.4 342 9.4 101630 61
2005-04-22 08:09:57 51°10.376 2°42.039 6.3 340 9.4 101630 61
2005-04-22 08:10:02 51°10.37 2°42.008 6.2 341 9.5 101630 60
2005-04-22 08:10:07 51°10.363 2°41.978 6.3 341 9.5 101630 60
2005-04-22 08:10:12 51°10.357 2°41.948 6.7 338 9.5 101630 61
2005-04-22 08:10:17 51°10.35 2°41.917 6.6 340 9.5 101630 61
2005-04-22 08:10:21 51°10.345 2°41.894 6.4 339 9.5 101630 60
2005-04-22 08:10:27 51°10.338 2°41.858 6.9 343 9.5 101630 60
2005-04-22 08:10:31 51°10.332 2°41.833 6.5 340 9.5 101630 60
2005-04-22 08:10:38 51°10.324 2°41.793 6.5 341 9.5 101630 60
2005-04-22 08:10:41 51°10.319 2°41.773 6.4 340 9.5 101630 61
2005-04-22 08:10:47 51°10.31 2°41.733 6.6 340 9.5 101630 61
2005-04-22 08:10:51 51°10.306 2°41.712 6.6 338 9.5 101630 61
2005-04-22 08:10:57 51°10.298 2°41.676 6.5 340 9.5 101630 61
2005-04-22 08:11:02 51°10.292 2°41.649 6.6 341 9.5 101630 60
2005-04-22 08:11:07 51°10.283 2°41.614 6.6 338 9.5 101630 60
2005-04-22 08:11:12 51°10.277 2°41.586 6.6 337 9.4 101630 61
2005-04-22 08:11:16 51°10.271 2°41.559 6.9 340 9.4 101630 61
2005-04-22 08:11:22 51°10.264 2°41.526 7 338 9.4 101630 61
2005-04-22 08:11:27 51°10.258 2°41.496 6.8 337 9.4 101630 61
2005-04-22 08:11:31 51°10.252 2°41.468 7 340 9.4 101630 61
2005-04-22 08:11:37 51°10.245 2°41.435 6.7 341 9.4 101630 61
2005-04-22 08:11:42 51°10.238 2°41.405 6.5 338 9.5 101630 60
2005-04-22 08:11:47 51°10.231 2°41.375 6 339 9.5 101630 60
2005-04-22 08:11:51 51°10.226 2°41.348 6.2 338 9.4 101630 59
2005-04-22 08:11:57 51°10.219 2°41.314 6.1 337 9.4 101630 59
2005-04-22 08:12:01 51°10.213 2°41.29 5.9 335 9.5 101630 60
2005-04-22 08:12:07 51°10.205 2°41.25 5.6 339 9.5 101630 60
2005-04-22 08:12:12 51°10.199 2°41.22 5.6 337 9.4 101630 59
2005-04-22 08:12:17 51°10.193 2°41.193 6.1 346 9.4 101630 59
2005-04-22 08:12:22 51°10.186 2°41.162 6.4 343 9.4 101630 59
2005-04-22 08:12:27 51°10.18 2°41.132 6.2 342 9.4 101630 59
2005-04-22 08:12:32 51°10.173 2°41.101 6.2 345 9.5 101630 59
2005-04-22 08:12:38 51°10.165 2°41.068 6.2 339 9.5 101630 59
2005-04-22 08:12:42 51°10.16 2°41.044 5.8 345 9.4 101630 60
2005-04-22 08:12:47 51°10.153 2°41.008 6.3 342 9.4 101630 60
2005-04-22 08:12:51 51°10.148 2°40.984 6.4 341 9.5 101630 60
2005-04-22 08:12:57 51°10.14 2°40.951 7 341 9.5 101630 60
2005-04-22 08:13:01 51°10.135 2°40.926 6.9 347 9.5 101630 61
2005-04-22 08:13:07 51°10.126 2°40.887 7 342 9.5 101630 61
2005-04-22 08:13:12 51°10.12 2°40.86 7.2 344 9.5 101630 61
2005-04-22 08:13:17 51°10.113 2°40.83 7.6 343 9.5 101630 61
2005-04-22 08:13:22 51°10.107 2°40.802 7.7 341 9.5 101630 61
2005-04-22 08:13:27 51°10.099 2°40.767 7 343 9.5 101630 61
2005-04-22 08:13:31 51°10.094 2°40.743 7.1 344 9.5 101620 61
2005-04-22 08:13:35 51°10.089 2°40.719 7.4 340 9.5 101620 61
2005-04-22 08:13:43 51°10.078 2°40.674 6.8 340 9.5 101620 60
2005-04-22 08:13:47 51°10.073 2°40.647 6.8 339 9.5 101620 60
2005-04-22 08:13:51 51°10.067 2°40.623 7 343 9.4 101630 59
2005-04-22 08:13:57 51°10.06 2°40.59 6.9 344 9.4 101630 59
2005-04-22 08:14:00 51°10.056 2°40.569 6.8 340 9.5 101620 59
2005-04-22 08:14:07 51°10.046 2°40.527 7.2 344 9.5 101620 59
2005-04-22 08:14:12 51°10.041 2°40.499 7.1 342 9.5 101620 58
2005-04-22 08:14:16 51°10.035 2°40.473 6.8 343 9.5 101620 58
2005-04-22 08:14:21 51°10.029 2°40.445 7.5 338 9.5 101620 59
2005-04-22 08:14:27 51°10.021 2°40.406 7.1 341 9.5 101620 59
2005-04-22 08:14:32 51°10.014 2°40.376 7.2 338 9.5 101620 59
2005-04-22 08:14:37 51°10.008 2°40.349 6.9 344 9.5 101620 59
2005-04-22 08:14:40 51°10.003 2°40.328 6.9 338 9.5 101620 59
2005-04-22 08:14:47 51°9.994 2°40.29 6.3 341 9.5 101620 59
2005-04-22 08:14:52 51°9.986 2°40.26 7.1 343 9.5 101620 58
2005-04-22 08:14:57 51°9.98 2°40.23 6.6 342 9.5 101620 58
2005-04-22 08:15:02 51°9.972 2°40.201 6.7 341 9.5 101620 57
2005-04-22 08:15:07 51°9.965 2°40.171 6.6 344 9.5 101620 57
2005-04-22 08:15:11 51°9.958 2°40.145 6.4 343 9.5 101620 58
2005-04-22 08:15:17 51°9.95 2°40.112 6.4 341 9.5 101620 58
2005-04-22 08:15:22 51°9.943 2°40.083 6.5 341 9.5 101630 57
2005-04-22 08:15:27 51°9.936 2°40.05 6.6 342 9.5 101630 57
2005-04-22 08:15:31 51°9.929 2°40.026 6.7 343 9.5 101620 58
2005-04-22 08:15:37 51°9.922 2°39.993 6.5 341 9.5 101620 58
2005-04-22 08:15:42 51°9.915 2°39.966 6.6 340 9.5 101620 57
2005-04-22 08:15:47 51°9.908 2°39.933 6.3 340 9.5 101620 57
2005-04-22 08:15:52 51°9.9 2°39.904 6.4 339 9.5 101630 58
2005-04-22 08:15:57 51°9.894 2°39.874 6 342 9.5 101630 58
2005-04-22 08:16:02 51°9.887 2°39.846 6.9 344 9.5 101630 59
2005-04-22 08:16:07 51°9.878 2°39.811 7.4 338 9.5 101630 59
2005-04-22 08:16:11 51°9.872 2°39.788 6.8 339 9.5 101620 59
2005-04-22 08:16:16 51°9.865 2°39.758 6.8 339 9.5 101620 59
2005-04-22 08:16:21 51°9.858 2°39.732 7.2 342 9.5 101630 59
2005-04-22 08:16:27 51°9.849 2°39.696 7.4 339 9.5 101630 59
2005-04-22 08:16:32 51°9.841 2°39.663 6.9 339 9.5 101620 59
2005-04-22 08:16:37 51°9.835 2°39.636 6.9 338 9.5 101620 59
2005-04-22 08:16:40 51°9.83 2°39.616 7.3 338 9.5 101620 57
2005-04-22 08:16:47 51°9.82 2°39.577 6.9 338 9.5 101620 57
2005-04-22 08:16:52 51°9.813 2°39.547 7.2 338 9.5 101620 57
2005-04-22 08:16:57 51°9.806 2°39.518 7.1 339 9.5 101620 57
2005-04-22 08:17:01 51°9.8 2°39.494 7 336 9.5 101620 57
2005-04-22 08:17:07 51°9.791 2°39.458 7 337 9.5 101620 57
2005-04-22 08:17:12 51°9.783 2°39.425 7 340 9.5 101620 57
2005-04-22 08:17:17 51°9.777 2°39.399 7.4 338 9.5 101620 57
2005-04-22 08:17:22 51°9.769 2°39.366 7 340 9.5 101620 58
2005-04-22 08:17:27 51°9.761 2°39.337 7 340 9.5 101620 58
2005-04-22 08:17:31 51°9.755 2°39.313 7 340 9.5 101620 57
2005-04-22 08:17:37 51°9.747 2°39.28 7.1 341 9.5 101620 57
2005-04-22 08:17:41 51°9.742 2°39.256 7.4 337 9.5 101620 58
2005-04-22 08:17:47 51°9.733 2°39.22 6.7 340 9.5 101620 58
2005-04-22 08:17:51 51°9.727 2°39.194 6.9 336 9.5 101620 58
2005-04-22 08:17:56 51°9.719 2°39.164 6.9 340 9.5 101620 58
2005-04-22 08:18:02 51°9.711 2°39.131 7.4 338 9.5 101620 58
2005-04-22 08:18:07 51°9.704 2°39.102 6.9 340 9.5 101620 58
2005-04-22 08:18:11 51°9.697 2°39.075 6.7 338 9.5 101620 58
2005-04-22 08:18:17 51°9.689 2°39.042 6.9 341 9.5 101620 58
2005-04-22 08:18:22 51°9.682 2°39.015 6.4 343 9.5 101620 59
2005-04-22 08:18:27 51°9.674 2°38.984 6.7 348 9.5 101620 59
2005-04-22 08:18:32 51°9.665 2°38.954 7 344 9.5 101620 59
2005-04-22 08:18:37 51°9.658 2°38.925 7 343 9.5 101620 59
2005-04-22 08:18:42 51°9.651 2°38.898 6.8 342 9.5 101620 59
2005-04-22 08:18:47 51°9.643 2°38.866 6.7 339 9.5 101620 59
2005-04-22 08:18:52 51°9.635 2°38.836 7 339 9.5 101620 60
2005-04-22 08:18:56 51°9.628 2°38.81 6.3 341 9.5 101620 60
2005-04-22 08:19:02 51°9.62 2°38.78 6.9 341 9.5 101620 60
2005-04-22 08:19:07 51°9.611 2°38.745 6.5 339 9.5 101620 60
2005-04-22 08:19:12 51°9.603 2°38.716 6.9 339 9.5 101620 59
2005-04-22 08:19:17 51°9.597 2°38.689 6.1 339 9.5 101620 59
2005-04-22 08:19:22 51°9.589 2°38.66 6.9 342 9.5 101610 59
2005-04-22 08:19:27 51°9.581 2°38.631 6.4 339 9.5 101610 59
2005-04-22 08:19:31 51°9.574 2°38.605 6.5 338 9.5 101610 59
2005-04-22 08:19:38 51°9.565 2°38.569 6.3 340 9.5 101610 59
2005-04-22 08:19:42 51°9.559 2°38.545 6.4 340 9.5 101620 58
2005-04-22 08:19:47 51°9.55 2°38.514 6.8 347 9.5 101620 58
2005-04-22 08:19:52 51°9.543 2°38.485 6.4 342 9.5 101620 58
2005-04-22 08:19:57 51°9.536 2°38.455 6.3 344 9.5 101620 58
2005-04-22 08:20:02 51°9.527 2°38.423 6.3 345 9.5 101620 58
2005-04-22 08:20:07 51°9.52 2°38.396 6.2 344 9.5 101620 58
2005-04-22 08:20:12 51°9.513 2°38.367 6.4 346 9.5 101610 59
2005-04-22 08:20:17 51°9.505 2°38.337 6.7 342 9.5 101610 59
2005-04-22 08:20:21 51°9.499 2°38.314 6.3 342 9.5 101610 58
2005-04-22 08:20:27 51°9.489 2°38.276 6.3 343 9.5 101610 58
2005-04-22 08:20:31 51°9.483 2°38.253 6.2 340 9.5 101610 59
2005-04-22 08:20:38 51°9.474 2°38.217 6.2 342 9.5 101610 59
2005-04-22 08:20:42 51°9.466 2°38.188 5.9 342 9.5 101610 60
2005-04-22 08:20:47 51°9.459 2°38.162 6 345 9.5 101610 60
2005-04-22 08:20:52 51°9.452 2°38.132 5.9 345 9.5 101610 59
2005-04-22 08:20:56 51°9.445 2°38.106 5.8 343 9.5 101610 59
2005-04-22 08:21:02 51°9.436 2°38.071 6 344 9.5 101610 59
2005-04-22 08:21:07 51°9.429 2°38.045 5.7 342 9.5 101610 59
2005-04-22 08:21:11 51°9.423 2°38.018 5.6 348 9.5 101620 59
2005-04-22 08:21:17 51°9.414 2°37.987 6.3 345 9.5 101620 59
2005-04-22 08:21:22 51°9.407 2°37.957 5.8 347 9.5 101620 58
2005-04-22 08:21:27 51°9.399 2°37.928 6 352 9.5 101620 58
2005-04-22 08:21:32 51°9.391 2°37.899 5.9 347 9.5 101620 58
2005-04-22 08:21:37 51°9.384 2°37.87 6.2 348 9.5 101620 58
2005-04-22 08:21:42 51°9.376 2°37.841 6 346 9.5 101610 59
2005-04-22 08:21:47 51°9.369 2°37.812 6.2 347 9.5 101610 59
2005-04-22 08:21:51 51°9.362 2°37.786 6.1 346 9.5 101610 60
2005-04-22 08:21:57 51°9.353 2°37.754 5.8 341 9.5 101610 60
2005-04-22 08:22:02 51°9.345 2°37.722 6.3 345 9.5 101610 60
2005-04-22 08:22:07 51°9.338 2°37.697 6.1 337 9.5 101610 60
2005-04-22 08:22:12 51°9.33 2°37.667 6.3 348 9.5 101610 60
2005-04-22 08:22:16 51°9.323 2°37.642 6.2 354 9.5 101610 60
2005-04-22 08:22:22 51°9.314 2°37.607 6.3 349 9.5 101610 60
2005-04-22 08:22:27 51°9.307 2°37.581 6.3 351 9.5 101610 60
2005-04-22 08:22:31 51°9.301 2°37.557 6 353 9.5 101610 60
2005-04-22 08:22:37 51°9.292 2°37.523 6.1 348 9.5 101610 60
2005-04-22 08:22:41 51°9.286 2°37.5 5.9 353 9.5 101610 60
2005-04-22 08:22:47 51°9.277 2°37.464 5.1 349 9.5 101610 60
2005-04-22 08:22:52 51°9.271 2°37.441 4.9 346 9.5 101610 60
2005-04-22 08:22:57 51°9.265 2°37.417 4.4 345 9.5 101610 60
2005-04-22 08:23:01 51°9.261 2°37.398 4 341 9.5 101620 59
2005-04-22 08:23:07 51°9.254 2°37.371 3.4 342 9.5 101620 59
2005-04-22 08:23:11 51°9.252 2°37.355 2.9 336 9.5 101620 59
2005-04-22 08:23:17 51°9.249 2°37.335 2.2 331 9.5 101620 59
2005-04-22 08:23:22 51°9.248 2°37.317 1.8 325 9.5 101620 59
2005-04-22 08:23:27 51°9.248 2°37.299 1.5 326 9.5 101620 59
2005-04-22 08:23:31 51°9.249 2°37.287 1 327 9.5 101620 59
2005-04-22 08:23:37 51°9.251 2°37.272 0.6 331 9.5 101620 59
2005-04-22 08:23:42 51°9.252 2°37.259 0.5 332 9.5 101620 59
2005-04-22 08:23:47 51°9.255 2°37.246 0.4 332 9.5 101620 59
2005-04-22 08:23:51 51°9.257 2°37.237 0.3 335 9.6 101620 59
2005-04-22 08:23:58 51°9.26 2°37.225 0.2 338 9.6 101620 59
2005-04-22 08:24:01 51°9.261 2°37.219 0.4 35 9.6 101620 59
2005-04-22 08:24:07 51°9.264 2°37.209 0.6 111 9.6 101620 59
2005-04-22 08:24:11 51°9.266 2°37.203 0.7 117 9.6 101620 59
2005-04-22 08:24:17 51°9.269 2°37.196 1.2 135 9.6 101620 59
2005-04-22 08:24:21 51°9.271 2°37.191 1.3 135 9.7 101620 59
2005-04-22 08:24:27 51°9.273 2°37.185 1.2 134 9.7 101620 59
2005-04-22 08:24:31 51°9.275 2°37.181 1.2 134 9.7 101610 59
2005-04-22 08:24:37 51°9.277 2°37.177 1.8 127 9.7 101610 59
2005-04-22 08:24:42 51°9.279 2°37.174 2 129 9.7 101620 59
2005-04-22 08:24:47 51°9.28 2°37.171 2.3 128 9.7 101620 59
2005-04-22 08:24:52 51°9.281 2°37.169 2.1 126 9.7 101620 58
2005-04-22 08:24:57 51°9.282 2°37.167 2.7 126 9.7 101620 58
2005-04-22 08:25:00 51°9.282 2°37.166 2.9 123 9.7 101620 58
2005-04-22 08:25:07 51°9.281 2°37.164 2.5 127 9.7 101620 58
2005-04-22 08:25:11 51°9.28 2°37.163 2.5 126 9.7 101620 58
2005-04-22 08:25:17 51°9.28 2°37.161 2.3 129 9.7 101620 58
2005-04-22 08:25:21 51°9.279 2°37.161 2.3 129 9.7 101610 58
2005-04-22 08:25:27 51°9.279 2°37.16 2.5 131 9.7 101610 58
2005-04-22 08:25:32 51°9.279 2°37.158 2.4 131 9.7 101610 59
2005-04-22 08:25:38 51°9.278 2°37.157 2.3 130 9.7 101610 59
2005-04-22 08:25:42 51°9.277 2°37.156 2.5 132 9.7 101610 59
2005-04-22 08:25:47 51°9.277 2°37.155 2.6 136 9.7 101610 59
2005-04-22 08:25:51 51°9.277 2°37.155 2.5 136 9.7 101610 59
2005-04-22 08:25:57 51°9.276 2°37.154 2.4 142 9.7 101610 59
2005-04-22 08:26:03 51°9.276 2°37.152 2.4 142 9.7 101610 60
2005-04-22 08:26:07 51°9.275 2°37.151 2.2 142 9.7 101610 60
2005-04-22 08:26:13 51°9.275 2°37.15 2.4 140 9.7 101610 60
2005-04-22 08:26:18 51°9.274 2°37.149 2.6 141 9.7 101610 60
2005-04-22 08:26:23 51°9.274 2°37.148 2.4 141 9.7 101610 60
2005-04-22 08:26:27 51°9.273 2°37.147 2.4 143 9.7 101610 60
2005-04-22 08:26:31 51°9.273 2°37.146 2.4 144 9.7 101610 59
2005-04-22 08:26:37 51°9.273 2°37.146 2.4 143 9.7 101610 59
2005-04-22 08:26:41 51°9.272 2°37.145 2.3 145 9.7 101610 58
2005-04-22 08:26:47 51°9.272 2°37.143 2.2 145 9.7 101610 58
2005-04-22 08:26:52 51°9.271 2°37.143 2.4 143 9.6 101610 58
2005-04-22 08:26:57 51°9.271 2°37.142 2.3 144 9.6 101610 58
2005-04-22 08:27:01 51°9.27 2°37.141 2.4 145 9.6 101610 58
2005-04-22 08:27:07 51°9.27 2°37.14 2.5 147 9.6 101610 58
2005-04-22 08:27:11 51°9.27 2°37.139 2.3 148 9.6 101610 59
2005-04-22 08:27:15 51°9.269 2°37.138 2.2 148 9.6 101610 59
2005-04-22 08:27:21 51°9.269 2°37.137 2.2 149 9.6 101610 60
2005-04-22 08:27:27 51°9.268 2°37.136 2.4 148 9.6 101610 60
2005-04-22 08:27:32 51°9.268 2°37.135 2.2 146 9.6 101610 60
2005-04-22 08:27:37 51°9.268 2°37.134 2.3 146 9.6 101610 60
2005-04-22 08:27:41 51°9.267 2°37.133 2.4 146 9.6 101620 59
2005-04-22 08:27:47 51°9.267 2°37.132 2.4 146 9.6 101620 59
2005-04-22 08:27:52 51°9.267 2°37.131 2.5 148 9.5 101610 59
2005-04-22 08:27:57 51°9.266 2°37.13 2.4 148 9.5 101610 59
2005-04-22 08:28:01 51°9.266 2°37.129 2.4 147 9.5 101610 59
2005-04-22 08:28:07 51°9.265 2°37.128 2.4 146 9.5 101610 59
2005-04-22 08:28:12 51°9.265 2°37.127 2.3 145 9.5 101610 59
2005-04-22 08:28:17 51°9.265 2°37.126 2.1 145 9.5 101610 59
2005-04-22 08:28:21 51°9.265 2°37.125 2.1 145 9.5 101610 59
2005-04-22 08:28:27 51°9.264 2°37.124 2 146 9.5 101610 59
2005-04-22 08:28:32 51°9.264 2°37.123 2.1 146 9.5 101610 58
2005-04-22 08:28:36 51°9.263 2°37.122 2.1 146 9.5 101610 58
2005-04-22 08:28:42 51°9.263 2°37.121 2 146 9.5 101610 58
2005-04-22 08:28:47 51°9.263 2°37.12 2 148 9.5 101610 58
2005-04-22 08:28:51 51°9.262 2°37.119 1.9 148 9.5 101610 58
2005-04-22 08:28:57 51°9.262 2°37.118 2 148 9.5 101610 58
2005-04-22 08:29:02 51°9.261 2°37.117 1.9 149 9.5 101610 58
2005-04-22 08:29:07 51°9.261 2°37.116 1.8 148 9.5 101610 58
2005-04-22 08:29:12 51°9.261 2°37.115 1.8 148 9.5 101610 58
2005-04-22 08:29:18 51°9.26 2°37.114 1.8 147 9.5 101610 58
2005-04-22 08:29:21 51°9.26 2°37.113 1.9 147 9.5 101610 58
2005-04-22 08:29:27 51°9.26 2°37.112 2.2 142 9.5 101610 58
2005-04-22 08:29:32 51°9.26 2°37.11 2.1 150 9.5 101610 58
2005-04-22 08:29:37 51°9.259 2°37.11 2.3 148 9.5 101610 58
2005-04-22 08:29:42 51°9.259 2°37.109 2.2 148 9.5 101610 58
2005-04-22 08:29:47 51°9.259 2°37.108 2 147 9.5 101610 58
2005-04-22 08:29:51 51°9.258 2°37.107 2.3 149 9.5 101610 59
2005-04-22 08:29:56 51°9.258 2°37.106 2.3 149 9.5 101610 59
2005-04-22 08:30:01 51°9.258 2°37.105 2.3 148 9.5 101610 59
2005-04-22 08:30:07 51°9.257 2°37.104 2.2 148 9.5 101610 59
2005-04-22 08:30:11 51°9.257 2°37.103 2 146 9.5 101610 59
2005-04-22 08:30:17 51°9.257 2°37.102 2 145 9.5 101610 59
2005-04-22 08:30:22 51°9.256 2°37.101 2.1 145 9.5 101620 59
2005-04-22 08:30:27 51°9.256 2°37.1 2.2 146 9.5 101620 59
2005-04-22 08:30:31 51°9.256 2°37.099 2.3 143 9.5 101610 59
2005-04-22 08:30:37 51°9.255 2°37.098 2.3 147 9.5 101610 59
2005-04-22 08:30:41 51°9.255 2°37.097 2.4 148 9.5 101610 59
2005-04-22 08:30:47 51°9.255 2°37.096 2.6 147 9.5 101610 59
2005-04-22 08:30:51 51°9.254 2°37.095 2.4 142 9.5 101610 60
2005-04-22 08:30:57 51°9.254 2°37.095 2.6 140 9.5 101610 60
2005-04-22 08:31:02 51°9.253 2°37.094 2.7 143 9.5 101610 60
2005-04-22 08:31:07 51°9.253 2°37.092 2.6 144 9.5 101610 60
2005-04-22 08:31:11 51°9.253 2°37.092 2.4 149 9.5 101610 60
2005-04-22 08:31:17 51°9.252 2°37.091 2.6 150 9.5 101610 60
2005-04-22 08:31:22 51°9.252 2°37.089 2.6 149 9.5 101610 60
2005-04-22 08:31:27 51°9.252 2°37.088 2.2 148 9.5 101610 60
2005-04-22 08:31:32 51°9.251 2°37.087 2.2 149 9.5 101610 61
2005-04-22 08:31:36 51°9.251 2°37.087 2.4 153 9.5 101610 61
2005-04-22 08:31:43 51°9.251 2°37.085 2.2 149 9.5 101610 62
2005-04-22 08:31:47 51°9.25 2°37.084 2.4 146 9.5 101610 62
2005-04-22 08:31:52 51°9.25 2°37.083 2.3 148 9.5 101610 62
2005-04-22 08:31:57 51°9.25 2°37.083 2.1 151 9.5 101610 62
2005-04-22 08:32:02 51°9.249 2°37.082 2.4 152 9.5 101610 61
2005-04-22 08:32:07 51°9.249 2°37.081 2.6 153 9.5 101610 61
2005-04-22 08:32:12 51°9.249 2°37.08 2.4 153 9.5 101610 62
2005-04-22 08:32:17 51°9.249 2°37.079 2.5 155 9.5 101610 62
2005-04-22 08:32:20 51°9.248 2°37.078 2.5 155 9.5 101620 63
2005-04-22 08:32:27 51°9.248 2°37.077 2.6 151 9.5 101620 63
2005-04-22 08:32:32 51°9.247 2°37.076 2.6 154 9.5 101610 63
2005-04-22 08:32:37 51°9.247 2°37.075 2.6 152 9.5 101610 63
2005-04-22 08:32:41 51°9.247 2°37.074 2.3 152 9.5 101610 62
2005-04-22 08:32:47 51°9.246 2°37.073 2.4 151 9.5 101610 62
2005-04-22 08:32:51 51°9.246 2°37.072 2.4 151 9.5 101610 60
2005-04-22 08:32:57 51°9.246 2°37.071 2.4 153 9.5 101610 60
2005-04-22 08:33:01 51°9.246 2°37.07 2.4 155 9.5 101620 60
2005-04-22 08:33:07 51°9.245 2°37.069 2.4 152 9.5 101620 60
2005-04-22 08:33:11 51°9.245 2°37.068 2.1 153 9.5 101610 60
2005-04-22 08:33:18 51°9.244 2°37.067 2.2 151 9.5 101610 60
2005-04-22 08:33:21 51°9.244 2°37.067 2.1 151 9.5 101610 61
2005-04-22 08:33:27 51°9.244 2°37.065 2.2 152 9.5 101610 61
2005-04-22 08:33:31 51°9.243 2°37.064 2 151 9.5 101610 60
2005-04-22 08:33:36 51°9.243 2°37.064 2.2 154 9.5 101610 60
2005-04-22 08:33:42 51°9.243 2°37.063 1.9 157 9.5 101610 60
2005-04-22 08:33:47 51°9.242 2°37.062 2.1 151 9.5 101610 60
2005-04-22 08:33:51 51°9.242 2°37.061 2.1 158 9.5 101610 60
2005-04-22 08:33:57 51°9.242 2°37.06 2.1 158 9.5 101610 60
2005-04-22 08:34:02 51°9.241 2°37.06 2.1 156 9.5 101610 60
2005-04-22 08:34:07 51°9.241 2°37.058 2.2 157 9.5 101610 60
2005-04-22 08:34:12 51°9.241 2°37.058 2.2 157 9.5 101620 60
2005-04-22 08:34:17 51°9.241 2°37.057 2.2 153 9.5 101620 60
2005-04-22 08:34:22 51°9.24 2°37.056 2.2 153 9.5 101610 60
2005-04-22 08:34:27 51°9.24 2°37.055 1.9 152 9.5 101610 60
2005-04-22 08:34:31 51°9.24 2°37.055 2.1 152 9.5 101610 60
2005-04-22 08:34:36 51°9.239 2°37.054 1.9 153 9.5 101610 60
2005-04-22 08:34:41 51°9.239 2°37.053 1.8 153 9.5 101610 59
2005-04-22 08:34:47 51°9.238 2°37.052 1.7 150 9.5 101610 59
2005-04-22 08:34:52 51°9.238 2°37.051 1.9 152 9.5 101610 60
2005-04-22 08:34:57 51°9.238 2°37.051 2.1 159 9.5 101610 60
2005-04-22 08:35:01 51°9.238 2°37.05 2.1 159 9.5 101610 60
2005-04-22 08:35:07 51°9.237 2°37.049 1.9 159 9.5 101610 60
2005-04-22 08:35:11 51°9.237 2°37.049 1.9 156 9.5 101610 60
2005-04-22 08:35:17 51°9.237 2°37.048 1.7 157 9.5 101610 60
2005-04-22 08:35:21 51°9.236 2°37.047 1.7 156 9.5 101610 60
2005-04-22 08:35:27 51°9.236 2°37.046 1.8 156 9.5 101610 60
2005-04-22 08:35:32 51°9.236 2°37.046 1.7 156 9.5 101610 60
2005-04-22 08:35:37 51°9.235 2°37.045 1.8 156 9.5 101610 60
2005-04-22 08:35:42 51°9.235 2°37.044 1.6 157 9.5 101610 60
2005-04-22 08:35:47 51°9.234 2°37.043 1.8 156 9.5 101610 60
2005-04-22 08:35:51 51°9.234 2°37.042 1.7 156 9.5 101610 60
2005-04-22 08:35:57 51°9.234 2°37.042 1.6 156 9.5 101610 60
2005-04-22 08:36:02 51°9.234 2°37.041 1.4 156 9.5 101610 60
2005-04-22 08:36:07 51°9.233 2°37.041 1.4 157 9.5 101610 60
2005-04-22 08:36:11 51°9.233 2°37.04 1.6 157 9.5 101610 60
2005-04-22 08:36:17 51°9.232 2°37.039 1.8 157 9.5 101610 60
2005-04-22 08:36:20 51°9.232 2°37.039 1.8 157 9.5 101610 60
2005-04-22 08:36:27 51°9.232 2°37.038 1.9 157 9.5 101610 60
2005-04-22 08:36:31 51°9.232 2°37.037 1.7 159 9.5 101610 60
2005-04-22 08:36:37 51°9.231 2°37.037 1.7 162 9.5 101610 60
2005-04-22 08:36:41 51°9.231 2°37.036 1.8 159 9.5 101610 60
2005-04-22 08:36:47 51°9.231 2°37.036 2 159 9.5 101610 60
2005-04-22 08:36:51 51°9.23 2°37.035 1.6 160 9.6 101610 60
2005-04-22 08:36:57 51°9.23 2°37.034 1.8 157 9.6 101610 60
2005-04-22 08:37:01 51°9.23 2°37.034 2 156 9.6 101610 61
2005-04-22 08:37:07 51°9.229 2°37.033 2 156 9.6 101610 61
2005-04-22 08:37:12 51°9.229 2°37.032 1.8 155 9.6 101610 60
2005-04-22 08:37:17 51°9.228 2°37.031 1.9 157 9.6 101610 60
2005-04-22 08:37:21 51°9.228 2°37.03 1.8 159 9.6 101610 60
2005-04-22 08:37:27 51°9.228 2°37.03 2 154 9.6 101610 60
2005-04-22 08:37:31 51°9.227 2°37.029 1.8 153 9.6 101610 60
2005-04-22 08:37:37 51°9.227 2°37.028 1.8 153 9.6 101610 60
2005-04-22 08:37:42 51°9.227 2°37.028 1.7 153 9.6 101610 60
2005-04-22 08:37:47 51°9.226 2°37.027 1.7 154 9.6 101610 60
2005-04-22 08:37:51 51°9.226 2°37.027 1.9 155 9.6 101610 60
2005-04-22 08:37:58 51°9.226 2°37.026 2 158 9.6 101610 60
2005-04-22 08:38:02 51°9.225 2°37.026 1.8 159 9.6 101610 60
2005-04-22 08:38:07 51°9.225 2°37.025 2.2 158 9.6 101610 60
2005-04-22 08:38:11 51°9.224 2°37.024 1.9 158 9.6 101610 60
2005-04-22 08:38:18 51°9.224 2°37.024 2 155 9.6 101610 60
2005-04-22 08:38:22 51°9.224 2°37.023 1.6 154 9.6 101610 61
2005-04-22 08:38:27 51°9.224 2°37.023 2 154 9.6 101610 61
2005-04-22 08:38:32 51°9.223 2°37.022 2 156 9.6 101610 60
2005-04-22 08:38:37 51°9.223 2°37.022 2 154 9.6 101610 60
2005-04-22 08:38:41 51°9.223 2°37.021 1.9 154 9.6 101610 61
2005-04-22 08:38:47 51°9.222 2°37.02 1.9 153 9.6 101610 61
2005-04-22 08:38:51 51°9.222 2°37.019 2.2 154 9.6 101610 61
2005-04-22 08:38:57 51°9.222 2°37.019 2.1 155 9.6 101610 61
2005-04-22 08:39:01 51°9.222 2°37.018 1.9 158 9.6 101610 60
2005-04-22 08:39:07 51°9.221 2°37.017 2.3 159 9.6 101610 60
2005-04-22 08:39:12 51°9.221 2°37.016 2.2 160 9.6 101610 60
2005-04-22 08:39:18 51°9.221 2°37.016 2.2 159 9.6 101610 60
2005-04-22 08:39:22 51°9.22 2°37.015 2.1 159 9.6 101610 60
2005-04-22 08:39:27 51°9.22 2°37.015 2.3 159 9.6 101610 60
2005-04-22 08:39:31 51°9.22 2°37.014 2.2 158 9.6 101610 60
2005-04-22 08:39:36 51°9.22 2°37.014 2.2 158 9.6 101610 60
2005-04-22 08:39:41 51°9.219 2°37.013 2.3 160 9.7 101610 59
2005-04-22 08:39:47 51°9.219 2°37.012 2.1 161 9.7 101610 59
2005-04-22 08:39:51 51°9.219 2°37.012 2.1 162 9.6 101610 59
2005-04-22 08:39:57 51°9.218 2°37.011 1.9 165 9.6 101610 59
2005-04-22 08:40:02 51°9.218 2°37.011 1.8 166 9.6 101610 59
2005-04-22 08:40:07 51°9.218 2°37.01 1.9 161 9.6 101610 59
2005-04-22 08:40:12 51°9.217 2°37.009 1.8 165 9.6 101610 59
2005-04-22 08:40:17 51°9.217 2°37.009 1.7 165 9.6 101610 59
2005-04-22 08:40:22 51°9.217 2°37.008 1.8 167 9.6 101610 59
2005-04-22 08:40:27 51°9.217 2°37.008 1.9 170 9.6 101610 59
2005-04-22 08:40:32 51°9.217 2°37.007 2.1 171 9.6 101610 60
2005-04-22 08:40:37 51°9.216 2°37.007 1.8 170 9.6 101610 60
2005-04-22 08:40:42 51°9.216 2°37.006 1.5 170 9.6 101610 60
2005-04-22 08:40:47 51°9.216 2°37.005 1.5 170 9.6 101610 60
2005-04-22 08:40:51 51°9.216 2°37.004 1.5 170 9.6 101610 60
2005-04-22 08:40:57 51°9.216 2°37.003 1.5 170 9.6 101610 60
2005-04-22 08:41:01 51°9.216 2°37.002 1.3 172 9.7 101610 59
2005-04-22 08:41:07 51°9.216 2°37 1.4 173 9.7 101610 59
2005-04-22 08:41:12 51°9.216 2°36.999 1.4 171 9.6 101610 59
2005-04-22 08:41:17 51°9.217 2°36.997 1.3 162 9.6 101610 59
2005-04-22 08:41:21 51°9.217 2°36.995 1.4 165 9.6 101610 59
2005-04-22 08:41:27 51°9.218 2°36.992 1.6 164 9.6 101610 59
2005-04-22 08:41:32 51°9.219 2°36.99 1.5 159 9.7 101610 59
2005-04-22 08:41:36 51°9.22 2°36.987 1.5 156 9.7 101610 59
2005-04-22 08:41:42 51°9.221 2°36.984 1.5 155 9.6 101610 59
2005-04-22 08:41:47 51°9.222 2°36.981 1.4 152 9.6 101610 59
2005-04-22 08:41:51 51°9.223 2°36.979 1.4 150 9.6 101610 59
2005-04-22 08:41:57 51°9.225 2°36.977 1.3 142 9.6 101610 59
2005-04-22 08:42:02 51°9.227 2°36.974 1.5 135 9.7 101610 60
2005-04-22 08:42:07 51°9.229 2°36.971 1.3 134 9.7 101610 60
2005-04-22 08:42:12 51°9.23 2°36.968 1.5 130 9.7 101610 59
2005-04-22 08:42:17 51°9.232 2°36.966 1.5 125 9.7 101610 59
2005-04-22 08:42:22 51°9.234 2°36.963 1.6 120 9.7 101610 59
2005-04-22 08:42:27 51°9.237 2°36.961 1.5 115 9.7 101610 59
2005-04-22 08:42:32 51°9.239 2°36.958 1.5 115 9.7 101610 59
2005-04-22 08:42:38 51°9.241 2°36.956 1.6 114 9.7 101610 59
2005-04-22 08:42:41 51°9.243 2°36.954 1.7 109 9.7 101610 60
2005-04-22 08:42:47 51°9.247 2°36.951 1.6 110 9.7 101610 60
2005-04-22 08:42:51 51°9.249 2°36.949 1.5 105 9.7 101610 61
2005-04-22 08:42:57 51°9.252 2°36.947 1.8 105 9.7 101610 61
2005-04-22 08:43:01 51°9.254 2°36.945 1.8 101 9.7 101610 60
2005-04-22 08:43:07 51°9.258 2°36.943 1.8 97 9.7 101610 60
2005-04-22 08:43:11 51°9.26 2°36.942 2 96 9.8 101610 60
2005-04-22 08:43:17 51°9.264 2°36.94 1.9 96 9.8 101610 60
2005-04-22 08:43:22 51°9.267 2°36.939 2 94 9.8 101600 60
2005-04-22 08:43:27 51°9.27 2°36.938 2 90 9.8 101600 60
2005-04-22 08:43:32 51°9.273 2°36.936 2.2 86 9.8 101610 60
2005-04-22 08:43:37 51°9.276 2°36.936 2.2 86 9.8 101610 60
2005-04-22 08:43:41 51°9.279 2°36.935 2.2 85 9.8 101610 60
2005-04-22 08:43:47 51°9.284 2°36.935 2.1 85 9.8 101610 60
2005-04-22 08:43:51 51°9.286 2°36.934 1.9 84 9.8 101610 59
2005-04-22 08:43:57 51°9.29 2°36.934 1.8 76 9.8 101610 59
2005-04-22 08:44:02 51°9.293 2°36.934 1.9 76 9.8 101610 58